This demonstration page uses our WeatherBlox Daily Observations layout. Learn more.

Left ArrowRight Arrow

40.92945, -100.16068

Hourly Observations for November 2, 2018

Temp ( °F °C ) Dew Point ( °F °C ) Humidity (%) Winds ( mph kmh ) Pressure ( in mb ) Visibility ( mi km ) Precip ( " mm )
12:15 am 00:15 Partly Cloudy 39 3.8 34 1.1 83 83 WNW 9 15 29.97 1015 10 16.0934 0 0
12:35 am 00:35 Partly Cloudy 41 5 35 1.4 78 78 NW 14 22 29.97 1015 10 16.0934 0 0
12:55 am 00:55 Mostly Cloudy 42 5.5 34 1.3 75 75 WNW 13 20 29.97 1015 10 16.0934 0 0
1:15 am 01:15 Partly Cloudy 41 4.9 34 1 76 76 WNW 12 19 29.97 1015 10 16.0934 0 0
1:35 am 01:35 Clear 40 4.3 34 0.9 79 79 WNW 10 17 29.97 1015 10 16.0934 0 0
1:55 am 01:55 Partly Cloudy 38 3.5 33 0.5 81 81 WNW 13 20 29.97 1015 10 16.0934 0 0
2:15 am 02:15 Clear 39 4 33 0.5 78 78 NW 13 20 29.97 1015 10 16.0934 0 0
2:35 am 02:35 Clear 38 3.5 32 0 78 78 WNW 12 19 29.97 1015 10 16.0934 0 0
2:55 am 02:55 Clear 36 2.4 32 -0.1 84 84 WNW 10 17 30 1016 10 16.0934 0 0
3:15 am 03:15 Clear 36 2.4 32 -0.1 84 84 W 12 19 30 1016 10 16.0934 0 0
3:35 am 03:35 Clear 37 2.5 32 0 84 84 WNW 12 19 30 1016 10 16.0934 0 0
3:55 am 03:55 Clear 36 2.3 32 0 85 85 WNW 13 20 30 1016 10 16.0934 0 0
4:15 am 04:15 Clear 35 1.6 31 -0.5 86 86 WNW 10 17 30 1016 10 16.0934 0 0
4:35 am 04:35 Clear 35 1.9 31 -0.5 84 84 NW 13 20 30 1016 10 16.0934 0 0
4:55 am 04:55 Clear 34 1 30 -1.1 86 86 WNW 9 15 30 1016 10 16.0934 0 0
5:15 am 05:15 Clear 33 0.8 30 -1.1 87 87 WNW 10 17 30.03 1017 10 16.0934 0 0
5:35 am 05:35 Clear 35 1.8 30 -1.2 81 81 NW 14 22 30.03 1017 10 16.0934 0 0
5:55 am 05:55 Clear 35 1.8 29 -1.5 79 79 NW 15 24 30.03 1017 10 16.0934 0 0
6:15 am 06:15 Clear 35 1.5 29 -1.5 81 81 NW 14 22 30.03 1017 10 16.0934 0 0
6:35 am 06:35 Clear 34 1.1 29 -1.7 82 82 NW 13 20 30.03 1017 10 16.0934 0 0
6:55 am 06:55 Clear 34 1 29 -1.9 81 81 NW 10 17 30.06 1018 10 16.0934 0 0
7:15 am 07:15 Clear 33 0.3 28 -2 85 85 WNW 13 20 30.09 1019 10 16.0934 0 0
7:35 am 07:35 Clear 32 0.2 28 -2.1 85 85 NW 10 17 30.09 1019 10 16.0934 0 0
7:55 am 07:55 Clear 32 0.2 28 -2 85 85 NNW 9 15 30.03 1017 10 16.0934 0 0
8:15 am 08:15 Sunny 32 -0.1 28 -2.4 85 85 NW 9 15 30.09 1019 10 16.0934 0 0
8:35 am 08:35 Sunny 32 0.2 28 -2 85 85 W 7 11 30.09 1019 10 16.0934 0 0
8:55 am 08:55 Sunny 33 0.4 29 -1.8 85 85 WNW 9 15 30.06 1018 10 16.0934 0 0
9:15 am 09:15 Sunny 35 1.6 30 -1.1 82 82 WNW 9 15 30.06 1018 10 16.0934 0 0
9:35 am 09:35 Sunny 37 2.7 31 -0.7 79 79 WNW 10 17 30.06 1018 10 16.0934 0 0
9:55 am 09:55 Sunny 39 3.9 31 -0.3 74 74 NW 12 19 30.03 1017 10 16.0934 0 0
10:15 am 10:15 Sunny 41 4.8 32 0 71 71 NW 12 19 30.03 1017 10 16.0934 0 0
10:35 am 10:35 Sunny 42 5.5 32 0.2 69 69 NNW 13 20 30.03 1017 10 16.0934 0 0
10:55 am 10:55 Sunny 44 6.6 33 0.5 65 65 NNW 16 26 30 1016 10 16.0934 0 0
11:15 am 11:15 Sunny 45 7 33 0.3 63 63 N 16 26 30 1016 10 16.0934 0 0
11:35 am 11:35 Sunny 46 7.5 32 0.2 60 60 NNW 12 19 30 1016 10 16.0934 0 0
11:55 am 11:55 Partly Cloudy 46 7.7 32 0.2 59 59 NNW 13 20 30 1016 10 16.0934 0 0
12:15 pm 12:15 Mostly Cloudy 47 8.5 33 0.3 57 57 NNW 15 24 30 1016 10 16.0934 0 0
12:35 pm 12:35 Mostly Cloudy 47 8.4 31 -0.4 54 54 N 13 20 29.97 1015 10 16.0934 0 0
12:55 pm 12:55 Partly Cloudy 48 8.7 31 -0.5 53 53 NNW 9 15 29.97 1015 10 16.0934 0 0
1:15 pm 13:15 Partly Cloudy 47 8.6 30 -1.2 51 51 N 7 11 29.97 1015 10 16.0934 0 0
1:35 pm 13:35 Mostly Cloudy 48 9.1 31 -0.7 51 51 NW 9 15 29.97 1015 10 16.0934 0 0
1:55 pm 13:55 Cloudy 48 8.8 30 -1 51 51 NW 7 11 29.94 1014 10 16.0934 0 0
2:15 pm 14:15 Cloudy 49 9.5 31 -0.7 49 49 W 10 17 29.91 1013 10 16.0934 0 0
2:35 pm 14:35 Partly Cloudy 49 9.6 30 -0.9 48 48 NW 9 15 29.91 1013 10 16.0934 0 0
2:55 pm 14:55 Mostly Cloudy 49 9.5 29 -1.4 47 47 W 5 7 29.88 1012 10 16.0934 0 0
3:15 pm 15:15 Mostly Cloudy 49 9.5 29 -1.7 46 46 NW 7 11 29.88 1012 10 16.0934 0 0
3:35 pm 15:35 Cloudy 49 9.7 29 -1.4 46 46 WNW 8 13 29.88 1012 10 16.0934 0 0
3:55 pm 15:55 Cloudy 49 9.3 29 -1.8 46 46 W 7 11 29.88 1012 10 16.0934 0 0
4:15 pm 16:15 Cloudy 49 9.6 29 -1.6 46 46 WNW 8 13 29.85 1011 10 16.0934 0 0
4:35 pm 16:35 Cloudy 49 9.4 28 -2 45 45 NW 5 7 29.85 1011 10 16.0934 0 0
4:55 pm 16:55 Cloudy 49 9.3 27 -2.8 43 43 Calm 29.85 1011 10 16.0934 0 0
5:15 pm 17:15 Cloudy 49 9.2 29 -1.7 47 47 W 3 6 29.85 1011 10 16.0934 0 0
5:35 pm 17:35 Cloudy 48 9.1 27 -2.7 44 44 Calm 29.83 1010 10 16.0934 0 0
5:55 pm 17:55 Cloudy 48 9 28 -2.4 45 45 Calm 29.83 1010 10 16.0934 0 0
6:15 pm 18:15 Cloudy 48 8.8 28 -2.3 46 46 Calm 29.83 1010 10 16.0934 0 0
6:35 pm 18:35 Cloudy 47 8.5 30 -1.1 51 51 SSE 3 6 29.83 1010 10 16.0934 0 0
6:55 pm 18:55 Cloudy 47 8.2 29 -1.8 50 50 SE 3 6 29.83 1010 10 16.0934 0 0
7:15 pm 19:15 Cloudy 46 7.6 31 -0.4 57 57 ESE 6 9 29.85 1011 10 16.0934 0 0
7:35 pm 19:35 Cloudy 46 8 30 -0.9 54 54 ESE 6 9 29.8 1009 10 16.0934 0 0
7:55 pm 19:55 Cloudy with Light Rain 47 8.2 30 -1.2 52 52 SE 6 9 29.8 1009 10 16.0934 0 0
8:15 pm 20:15 Cloudy 46 7.8 31 -0.5 56 56 ESE 8 13 29.83 1010 10 16.0934 0 0
8:35 pm 20:35 Cloudy with Light Rain 45 7.4 32 0.1 60 60 ESE 8 13 29.8 1009 10 16.0934 0 0
8:55 pm 20:55 Cloudy 45 7.2 32 0.1 61 61 SE 9 15 29.8 1009 10 16.0934 0 0
9:15 pm 21:15 Cloudy 45 7.4 32 0 60 60 SE 9 15 29.8 1009 10 16.0934 0 0
9:35 pm 21:35 Cloudy with Drizzle 45 7.1 32 0.2 62 62 SE 7 11 29.8 1009 10 16.0934 0 0
9:55 pm 21:55 Cloudy with Drizzle 45 7 33 0.5 64 64 SE 6 9 29.83 1010 10 16.0934 0 0
10:15 pm 22:15 Cloudy with Light Rain 43 6.2 35 1.9 74 74 SE 8 13 29.8 1009 10 16.0934 0 0
10:35 pm 22:35 Cloudy with Light Rain 43 6.1 35 1.9 75 75 ESE 9 15 29.8 1009 10 16.0934 0.01 0.254
10:55 pm 22:55 Cloudy with Light Rain 42 5.8 36 2.1 77 77 ESE 12 19 29.8 1009 10 16.0934 0.01 0.254
11:15 pm 23:15 Cloudy 42 5.7 36 2.2 78 78 ESE 12 19 29.77 1008 10 16.0934 0 0
11:35 pm 23:35 Cloudy 42 5.5 36 2 78 78 SE 12 19 29.77 1008 10 16.0934 0 0
11:55 pm 23:55 Cloudy 42 5.5 36 2 78 78 ESE 13 20 29.77 1008 10 16.0934 0 0

Powered by AerisWeather